Hourly Weather Bhopal

Today, 10 July, Friday

Time Temperature Precipitation Wind Pressure Humidity
00:00 +29°C° 0 mm 4 mps 709 mmHg 74%
01:00 +29°C° 0 mm 4 mps 708 mmHg 76%
02:00 +29°C° 0 mm 5 mps 708 mmHg 78%
03:00 +28°C° 0.1 mm 5 mps 708 mmHg 79%
04:00 +28°C° 0.1 mm 5 mps 708 mmHg 80%
05:00 +28°C° 0 mm 4 mps 708 mmHg 83%
06:00 +28°C° 0 mm 5 mps 709 mmHg 81%
07:00 +29°C° 0 mm 5 mps 709 mmHg 78%
08:00 +30°C° 0 mm 6 mps 710 mmHg 75%
09:00 +32°C° 0 mm 6 mps 710 mmHg 71%
10:00 +33°C° 0 mm 6 mps 710 mmHg 66%
11:00 +34°C° 0 mm 6 mps 710 mmHg 62%
12:00 +35°C° 0.4 mm 6 mps 710 mmHg 59%
13:00 +35°C° 0.4 mm 6 mps 709 mmHg 57%
14:00 +36°C° 0.4 mm 6 mps 709 mmHg 55%
15:00 +35°C° 0.6 mm 6 mps 708 mmHg 57%
16:00 +34°C° 0.6 mm 6 mps 708 mmHg 59%
17:00 +34°C° 0.6 mm 6 mps 708 mmHg 60%
18:00 +33°C° 0.3 mm 6 mps 708 mmHg 63%
19:00 +32°C° 0.3 mm 5 mps 708 mmHg 66%
20:00 +32°C° 0.3 mm 5 mps 709 mmHg 69%
21:00 +30°C° 0.1 mm 5 mps 709 mmHg 71%
22:00 +30°C° 0.1 mm 5 mps 709 mmHg 72%
23:00 +30°C° 0.1 mm 5 mps 709 mmHg 73%

Tomorrow, 11 July, Saturday

Time Temperature Precipitation Wind Pressure Humidity
00:00 +29°C° 0 mm 5 mps 709 mmHg 74%
01:00 +29°C° 0 mm 5 mps 709 mmHg 76%
02:00 +28°C° 0 mm 5 mps 708 mmHg 77%
03:00 +28°C° 0 mm 5 mps 708 mmHg 78%
04:00 +28°C° 0 mm 5 mps 708 mmHg 79%
05:00 +27°C° 0 mm 5 mps 708 mmHg 81%
06:00 +28°C° 0 mm 6 mps 708 mmHg 79%
07:00 +28°C° 0 mm 6 mps 709 mmHg 77%
08:00 +29°C° 0 mm 6 mps 709 mmHg 75%
09:00 +30°C° 0 mm 6 mps 709 mmHg 71%
10:00 +30°C° 0 mm 6 mps 709 mmHg 68%
11:00 +32°C° 0 mm 6 mps 709 mmHg 64%
12:00 +33°C° 0 mm 6 mps 709 mmHg 62%
13:00 +33°C° 0 mm 6 mps 708 mmHg 60%
14:00 +34°C° 0 mm 6 mps 708 mmHg 57%
15:00 +34°C° 0 mm 6 mps 708 mmHg 57%
16:00 +34°C° 0 mm 6 mps 707 mmHg 56%
17:00 +34°C° 0 mm 5 mps 707 mmHg 55%
18:00 +34°C° 0 mm 5 mps 707 mmHg 58%
19:00 +33°C° 0 mm 5 mps 708 mmHg 61%
20:00 +32°C° 0 mm 4 mps 708 mmHg 65%
21:00 +30°C° 0 mm 5 mps 708 mmHg 66%
22:00 +30°C° 0 mm 5 mps 708 mmHg 66%
23:00 +30°C° 0 mm 5 mps 708 mmHg 67%

Day after tomorrow, 12 July, Sunday

Time Temperature Precipitation Wind Pressure Humidity
00:00 +29°C° 0 mm 5 mps 708 mmHg 71%
01:00 +29°C° 0 mm 5 mps 708 mmHg 74%
02:00 +28°C° 0 mm 5 mps 708 mmHg 77%
03:00 +28°C° 0 mm 5 mps 708 mmHg 78%
04:00 +28°C° 0 mm 5 mps 708 mmHg 79%
05:00 +27°C° 0 mm 5 mps 708 mmHg 80%
06:00 +28°C° 0 mm 6 mps 709 mmHg 77%
07:00 +28°C° 0 mm 6 mps 709 mmHg 74%
08:00 +29°C° 0 mm 7 mps 710 mmHg 71%
09:00 +30°C° 0 mm 7 mps 709 mmHg 68%
10:00 +32°C° 0 mm 7 mps 709 mmHg 64%
11:00 +33°C° 0 mm 7 mps 709 mmHg 60%
12:00 +34°C° 0 mm 6 mps 709 mmHg 57%
13:00 +35°C° 0 mm 6 mps 709 mmHg 54%
14:00 +35°C° 0 mm 6 mps 708 mmHg 51%
15:00 +35°C° 0 mm 6 mps 708 mmHg 51%
16:00 +35°C° 0 mm 5 mps 708 mmHg 52%
17:00 +35°C° 0 mm 5 mps 707 mmHg 52%
18:00 +34°C° 0 mm 5 mps 708 mmHg 56%
19:00 +33°C° 0 mm 5 mps 708 mmHg 60%
20:00 +32°C° 0 mm 5 mps 708 mmHg 63%
21:00 +32°C° 0.1 mm 5 mps 708 mmHg 65%
22:00 +30°C° 0.1 mm 5 mps 709 mmHg 67%
23:00 +30°C° 0.1 mm 5 mps 709 mmHg 69%

13 July, Monday

Time Temperature Precipitation Wind Pressure Humidity
00:00 +29°C° 0 mm 5 mps 708 mmHg 72%
01:00 +29°C° 0 mm 5 mps 708 mmHg 74%
02:00 +28°C° 0 mm 5 mps 708 mmHg 76%
03:00 +28°C° 0.1 mm 5 mps 708 mmHg 78%
04:00 +28°C° 0.1 mm 5 mps 708 mmHg 79%
05:00 +28°C° 0.1 mm 5 mps 708 mmHg 81%
06:00 +28°C° 0 mm 5 mps 708 mmHg 77%
07:00 +29°C° 0 mm 6 mps 709 mmHg 74%
08:00 +30°C° 0 mm 6 mps 709 mmHg 70%
09:00 +32°C° 0 mm 6 mps 709 mmHg 66%
10:00 +33°C° 0 mm 6 mps 709 mmHg 63%
11:00 +34°C° 0 mm 5 mps 709 mmHg 59%
12:00 +35°C° 0.3 mm 5 mps 709 mmHg 56%
13:00 +36°C° 0.3 mm 5 mps 709 mmHg 52%
14:00 +36°C° 0.3 mm 5 mps 708 mmHg 49%
15:00 +36°C° 0.7 mm 4 mps 708 mmHg 51%
16:00 +35°C° 0.7 mm 3 mps 708 mmHg 54%
17:00 +35°C° 0.7 mm 2 mps 707 mmHg 56%
18:00 +34°C° 0.3 mm 2 mps 708 mmHg 58%
19:00 +34°C° 0.3 mm 2 mps 708 mmHg 61%
20:00 +32°C° 0.3 mm 2 mps 709 mmHg 64%
21:00 +31°C° 1.8 mm 2 mps 709 mmHg 68%
22:00 +30°C° 1.8 mm 2 mps 709 mmHg 72%
23:00 +29°C° 1.8 mm 3 mps 709 mmHg 77%

14 July, Tuesday

Time Temperature Precipitation Wind Pressure Humidity
00:00 +29°C° 1.6 mm 3 mps 709 mmHg 78%
01:00 +29°C° 1.6 mm 3 mps 709 mmHg 79%
02:00 +28°C° 1.6 mm 3 mps 708 mmHg 80%
03:00 +28°C° 1.7 mm 4 mps 708 mmHg 80%
04:00 +28°C° 1.7 mm 4 mps 709 mmHg 81%
05:00 +28°C° 1.7 mm 4 mps 709 mmHg 81%
06:00 +28°C° 1 mm 4 mps 709 mmHg 81%
07:00 +28°C° 1 mm 4 mps 709 mmHg 81%
08:00 +28°C° 1 mm 3 mps 710 mmHg 81%
09:00 +28°C° 0.6 mm 3 mps 710 mmHg 80%
10:00 +29°C° 0.6 mm 3 mps 710 mmHg 79%
11:00 +29°C° 0.6 mm 3 mps 710 mmHg 78%
12:00 +29°C° 0.9 mm 3 mps 710 mmHg 76%
13:00 +29°C° 0.9 mm 3 mps 709 mmHg 75%
14:00 +30°C° 0.9 mm 3 mps 709 mmHg 74%
15:00 +29°C° 0.2 mm 3 mps 709 mmHg 76%
16:00 +29°C° 0.2 mm 3 mps 708 mmHg 77%
17:00 +29°C° 0.2 mm 2 mps 708 mmHg 79%
18:00 +28°C° 0 mm 2 mps 708 mmHg 81%
19:00 +28°C° 0 mm 2 mps 708 mmHg 82%
20:00 +28°C° 0 mm 1 mps 708 mmHg 83%
21:00 +28°C° 0 mm 1 mps 709 mmHg 84%
22:00 +28°C° 0 mm 1 mps 709 mmHg 84%
23:00 +28°C° 0 mm 1 mps 709 mmHg 84%

15 July, Wednesday

Time Temperature Precipitation Wind Pressure Humidity
00:00 +27°C° 0.1 mm 1 mps 709 mmHg 85%
01:00 +27°C° 0.1 mm 1 mps 708 mmHg 86%
02:00 +27°C° 0.1 mm 1 mps 708 mmHg 86%
03:00 +27°C° 0.5 mm 1 mps 708 mmHg 86%
04:00 +27°C° 0.5 mm 1 mps 708 mmHg 87%
05:00 +27°C° 0.5 mm 2 mps 708 mmHg 87%
06:00 +27°C° 0 mm 1 mps 708 mmHg 85%
07:00 +28°C° 0 mm 1 mps 709 mmHg 83%
08:00 +28°C° 0 mm 1 mps 709 mmHg 81%
09:00 +29°C° 0 mm 1 mps 709 mmHg 76%
10:00 +30°C° 0 mm 1 mps 709 mmHg 72%
11:00 +31°C° 0 mm 2 mps 709 mmHg 67%
12:00 +32°C° 0.1 mm 1 mps 708 mmHg 65%
13:00 +33°C° 0.1 mm 1 mps 708 mmHg 63%
14:00 +33°C° 0.1 mm 1 mps 707 mmHg 61%
15:00 +33°C° 0.1 mm 1 mps 707 mmHg 62%
16:00 +34°C° 0.1 mm 2 mps 706 mmHg 63%
17:00 +34°C° 0.1 mm 2 mps 706 mmHg 64%
18:00 +32°C° 1.5 mm 2 mps 706 mmHg 69%
19:00 +31°C° 1.5 mm 2 mps 706 mmHg 74%
20:00 +30°C° 1.5 mm 3 mps 707 mmHg 79%
21:00 +29°C° 0.1 mm 3 mps 707 mmHg 81%
22:00 +29°C° 0.1 mm 3 mps 707 mmHg 83%
23:00 +28°C° 0.1 mm 3 mps 707 mmHg 85%
Show more